EW4711 Weather Reports


Display with metric or nautical units.
time (UTC)temp
F
wind
direction
speed
MPH
gust
MPH
rain 1hr
in
rain 24hr
in
rain mn
in
humidity
%
barometer
mb
20260504005603 52 292 8.0 18.0 0.00 0.03 0.03 65 1008.2
20260504005103 52 277 7.0 17.0 0.00 0.03 0.03 66 1008.2
20260504004603 52 276 8.0 20.0 0.00 0.03 0.03 66 1008.2
20260504004103 52 271 6.0 12.0 0.00 0.03 0.03 68 1008.2
20260504003603 51 286 9.0 16.0 0.00 0.03 0.03 70 1008.2
20260504003103 51 293 6.0 14.0 0.00 0.03 0.03 72 1008.3
20260504002602 51 281 4.0 14.0 0.00 0.03 0.03 74 1008.3
20260504001603 50 284 2.0 9.0 0.01 0.03 0.03 80 1008.3
20260504001102 49 280 4.0 10.0 0.01 0.03 0.03 81 1008.4
20260504000602 49 288 5.0 8.0 0.01 0.03 0.03 84 1008.3
20260503235603 49 267 2.0 3.0 0.01 0.03 0.03 87 1008.4
20260503235102 49 241 1.0 3.0 0.01 0.03 0.03 87 1008.5
20260503233603 50 274 0.0 1.0 0.01 0.03 0.03 87 1008.9
20260503233103 50 274 1.0 2.0 0.02 0.03 0.03 86 1008.9
20260503231603 50 270 1.0 2.0 0.01 0.02 0.02 85 1009.1
20260503231103 50 297 1.0 3.0 0.01 0.02 0.02 85 1009.1
20260503230603 50 328 1.0 3.0 0.01 0.02 0.02 84 1009.0
20260503225603 51 262 2.0 3.0 0.01 0.02 0.02 82 1009.1
20260503225104 51 319 3.0 7.0 0.01 0.02 0.02 81 1009.0
20260503224603 51 342 3.0 9.0 0.01 0.02 0.02 81 1009.1
20260503224103 51 346 3.0 8.0 0.01 0.02 0.02 79 1009.2
20260503223603 52 288 4.0 10.0 0.01 0.02 0.02 78 1009.3
20260503223102 52 304 5.0 13.0 0.00 0.01 0.01 76 1009.3
20260503222603 52 307 6.0 14.0 0.00 0.01 0.01 74 1009.3
20260503222103 53 299 7.0 14.0 0.00 0.01 0.01 72 1009.3
20260503221603 53 337 7.0 16.0 0.00 0.01 0.01 70 1009.1
20260503221103 53 313 5.0 12.0 0.00 0.01 0.01 69 1009.1
20260503220603 53 313 9.0 16.0 0.00 0.01 0.01 68 1009.0
20260503215602 53 296 6.0 13.0 0.00 0.01 0.01 65 1008.8
20260503215102 53 276 5.0 12.0 0.00 0.01 0.01 65 1008.7
20260503214603 53 269 7.0 14.0 0.00 0.01 0.01 65 1008.6
20260503214103 53 293 5.0 14.0 0.00 0.01 0.01 64 1008.5
20260503213603 53 280 6.0 14.0 0.00 0.01 0.01 64 1008.5
20260503213103 53 292 7.0 15.0 0.00 0.01 0.01 64 1008.4
20260503212603 53 276 6.0 14.0 0.00 0.01 0.01 65 1008.4
20260503212103 53 265 5.0 12.0 0.00 0.01 0.01 65 1008.4
20260503211603 52 251 6.0 13.0 0.00 0.01 0.01 65 1008.4
20260503211103 52 244 5.0 12.0 0.00 0.01 0.01 65 1008.4
20260503210603 52 273 6.0 17.0 0.00 0.01 0.01 65 1008.4
20260503210104 52 266 6.0 15.0 0.00 0.01 0.01 64 1008.5
20260503205603 52 275 5.0 13.0 0.00 0.01 0.01 65 1008.5
20260503204603 53 281 5.0 18.0 0.00 0.01 0.01 63 1008.6
20260503204103 53 253 6.0 13.0 0.00 0.01 0.01 64 1008.6
20260503203603 53 259 7.0 16.0 0.00 0.01 0.01 63 1008.7
20260503203103 53 284 6.0 18.0 0.00 0.01 0.01 63 1008.7
20260503202602 54 261 5.0 12.0 0.00 0.01 0.01 61 1008.7
20260503202103 54 252 5.0 15.0 0.00 0.01 0.01 62 1008.7
20260503201603 54 281 6.0 18.0 0.00 0.01 0.01 62 1008.8
20260503201103 54 270 6.0 16.0 0.00 0.01 0.01 60 1008.8
20260503200603 55 246 6.0 14.0 0.00 0.01 0.01 59 1008.9
20260503200104 55 266 6.0 12.0 0.00 0.01 0.01 59 1009.0
20260503195603 55 279 6.0 12.0 0.00 0.01 0.01 60 1009.0
20260503195103 55 282 5.0 15.0 0.00 0.01 0.01 58 1009.1
20260503194603 56 251 6.0 13.0 0.00 0.01 0.01 58 1009.2
20260503194103 55 262 6.0 15.0 0.00 0.01 0.01 58 1009.4
20260503193603 55 271 8.0 14.0 0.00 0.01 0.01 58 1009.5
20260503193103 55 264 8.0 17.0 0.00 0.01 0.01 59 1009.6
20260503192604 55 282 6.0 12.0 0.00 0.01 0.01 59 1009.8
20260503192103 55 262 5.0 20.0 0.00 0.01 0.01 58 1009.8
20260503191603 55 281 8.0 16.0 0.00 0.01 0.01 56 1009.9
20260503191103 54 257 6.0 13.0 0.00 0.01 0.01 57 1010.0
20260503190604 54 254 6.0 14.0 0.00 0.01 0.01 55 1010.0
20260503190104 55 261 7.0 12.0 0.00 0.01 0.01 54 1010.0
20260503185103 56 279 8.0 18.0 0.00 0.01 0.01 54 1010.2
20260503184603 56 270 10.0 23.0 0.00 0.01 0.01 53 1010.3
20260503184103 56 292 10.0 20.0 0.00 0.01 0.01 54 1010.4
20260503183603 55 266 6.0 22.0 0.00 0.01 0.01 52 1010.4
20260503182603 54 263 9.0 17.0 0.00 0.01 0.01 50 1010.6
20260503182103 54 276 7.0 17.0 0.00 0.01 0.01 53 1010.7
20260503181603 54 266 9.0 22.0 0.00 0.01 0.01 51 1010.8
20260503181103 54 260 7.0 20.0 0.00 0.01 0.01 56 1010.8
20260503180603 53 269 6.0 14.0 0.00 0.01 0.01 54 1010.9
20260503180103 54 283 6.0 14.0 0.00 0.01 0.01 56 1011.0
20260503175605 54 285 7.0 16.0 0.00 0.01 0.01 56 1011.1
20260503175103 53 293 5.0 13.0 0.00 0.01 0.01 56 1011.1
20260503174603 53 269 6.0 18.0 0.00 0.01 0.01 54 1011.1
20260503174103 54 292 7.0 20.0 0.00 0.01 0.01 54 1011.1
20260503173603 54 266 7.0 15.0 0.00 0.01 0.01 54 1011.3
20260503173104 53 273 7.0 13.0 0.00 0.01 0.01 54 1011.3
20260503172103 54 296 6.0 14.0 0.00 0.01 0.01 54 1011.6
20260503171602 54 269 6.0 14.0 0.00 0.01 0.01 53 1011.5
20260503171103 54 280 7.0 15.0 0.00 0.01 0.01 51 1011.7
20260503170604 54 285 10.0 20.0 0.00 0.01 0.01 53 1011.7
20260503170103 54 264 5.0 12.0 0.00 0.01 0.01 55 1011.7
20260503140103 51 310 6.0 13.0 0.00 0.01 0.01 70 1013.0
20260503131103 49 270 3.0 9.0 0.00 0.01 0.01 75 1013.3
20260503130603 48 275 5.0 12.0 0.00 0.01 0.01 76 1013.3
20260503120104 38 239 3.0 8.0 0.01 0.01 0.01 85 1013.6
20260503110604 32 249 0.0 2.0 0.00 0.00 0.00 93 1013.5
20260503110104 31 245 1.0 3.0 0.00 0.00 0.00 93 1013.5
20260503090104 29 287 0.0 1.0 0.00 0.00 0.00 89 1013.8
20260503081603 30 287 0.0 1.0 0.00 0.00 0.00 88 1013.9
20260503081103 31 287 0.0 0.0 0.00 0.00 0.00 88 1013.9
20260503080603 31 287 0.0 2.0 0.00 0.00 0.00 88 1013.9
20260503080104 31 287 0.0 0.0 0.00 0.00 0.00 88 1013.9
20260503072603 32 277 1.0 1.0 0.00 0.00 0.00 86 1013.8
20260503072104 32 276 0.0 1.0 0.00 0.00 0.00 86 1013.8
20260503071603 32 276 0.0 3.0 0.00 0.00 0.00 86 1013.8
20260503071103 33 267 0.0 0.0 0.00 0.00 0.00 86 1013.7
20260503070103 33 267 0.0 0.0 0.00 0.00 0.00 86 1013.7
20260503060103 35 265 1.0 2.0 0.00 0.00 0.00 85 1014.0
20260503055104 35 278 1.0 2.0 0.00 0.00 0.00 84 1014.0
20260503054603 35 278 1.0 2.0 0.00 0.00 0.00 85 1014.0
20260503054103 35 278 1.0 2.0 0.00 0.00 0.00 85 1014.0
20260503053603 35 278 1.0 2.0 0.00 0.00 0.00 85 1014.0
20260503053104 35 283 1.0 2.0 0.00 0.00 0.00 84 1014.1
20260503052103 36 284 1.0 2.0 0.00 0.00 0.00 84 1014.2
20260503051604 36 285 1.0 2.0 0.00 0.00 0.00 84 1014.2
20260503050104 36 252 1.0 3.0 0.00 0.00 0.00 84 1014.3
20260503045604 37 257 1.0 3.0 0.00 0.00 0.00 84 1014.3
20260503045103 37 245 1.0 2.0 0.00 0.00 0.00 84 1014.3
20260503044603 37 245 1.0 3.0 0.00 0.00 0.00 83 1014.3
20260503043603 37 253 1.0 2.0 0.00 0.00 0.00 82 1014.4
20260503042604 37 251 1.0 3.0 0.00 0.00 0.00 82 1014.4
20260503042104 37 252 1.0 1.0 0.00 0.00 0.00 82 1014.5
20260503041604 38 252 1.0 3.0 0.00 0.00 0.00 81 1014.5
20260503041103 38 252 1.0 2.0 0.00 0.00 0.00 81 1014.5
20260503040603 38 252 1.0 2.0 0.00 0.00 0.00 80 1014.6
20260503040104 38 254 1.0 2.0 0.00 0.00 0.00 80 1014.6
20260503034604 39 253 1.0 2.0 0.00 0.00 0.00 79 1014.5
20260503034103 39 253 1.0 2.0 0.00 0.00 0.00 79 1014.6
20260503033604 39 254 0.0 0.0 0.00 0.00 0.00 79 1014.6
20260503033103 39 254 0.0 1.0 0.00 0.00 0.00 79 1014.6
20260503032603 39 254 1.0 2.0 0.00 0.00 0.00 79 1014.6
20260503032104 40 254 1.0 3.0 0.00 0.00 0.00 78 1014.7
20260503031603 40 283 1.0 3.0 0.00 0.00 0.00 78 1014.7
20260503031103 40 256 1.0 3.0 0.00 0.00 0.00 78 1014.7
20260503030604 40 239 2.0 3.0 0.00 0.00 0.00 78 1014.7
20260503030104 40 265 2.0 3.0 0.00 0.00 0.00 78 1014.7
20260503025604 40 249 1.0 3.0 0.00 0.00 0.00 78 1014.7
20260503025103 40 251 1.0 2.0 0.00 0.00 0.00 78 1014.8
20260503024604 40 251 1.0 2.0 0.00 0.00 0.00 78 1014.8
20260503023603 40 264 1.0 3.0 0.00 0.00 0.00 78 1014.8
20260503022103 41 267 1.0 3.0 0.00 0.00 0.00 78 1015.0
20260503021103 41 291 1.0 2.0 0.00 0.00 0.00 77 1015.1
20260503020603 41 291 1.0 3.0 0.00 0.00 0.00 77 1015.1
20260503015103 41 255 1.0 3.0 0.00 0.00 0.00 75 1015.0
20260503014604 41 283 2.0 3.0 0.00 0.00 0.00 75 1015.0
20260503014104 42 273 2.0 3.0 0.00 0.00 0.00 74 1015.0
20260503013603 42 252 2.0 5.0 0.00 0.00 0.00 73 1015.0
20260503013103 42 297 2.0 5.0 0.00 0.00 0.00 72 1015.0
20260503012104 42 302 3.0 5.0 0.00 0.00 0.00 69 1015.0
20260503011603 42 302 2.0 8.0 0.00 0.00 0.00 68 1015.0
20260503011103 42 289 4.0 8.0 0.00 0.00 0.00 68 1015.0
20260503010603 42 310 5.0 10.0 0.00 0.00 0.00 68 1014.9